FENGYUN 1C DEB, 37424

Orbit data source: Space-Track

FENGYUN 1C DEB, 37424 is space debris in SSO originally from a launch on Mon, 10 May 1999 UTC launched from the Taiyaun Space Center, China (TSC). Fengyun 1C debris stems from the Chinese weather satellite Fengyun-1C, which was intentionally destroyed by a Chinese anti-satellite missile in 2007. This event dramatically increased the amount of space debris, with thousands of trackable fragments posing hazards to satellites and human spaceflight. The Fengyun 1C debris cloud has become a focal point in discussions about space sustainability and the need for international regulations to prevent the creation of new debris.

Loading next visibility...
Identifier
37424, 1999-025EGS
Orbit
SSO
Country
Flag of CNCN / PRC
Related business
Manufacturer
Unknown
Mission
Spacecraft
Bus & Motor
Unknown
Mass
Unknown
Launch date (UTC)
1999-05-10 (27 years ago)
Launch vehicle
Unknown
Launch site
Taiyaun Space Center, China (TSC)
Object type
Payload
Rocket body
Debris
Shape & HBR
Unknown shape, 0.1 m
Radar Cross Section
Small (<0.1 m²)

Expand to show TLE details & history
Last TLE update: 2 days ago

TLE from 2 days ago
0 FENGYUN 1C DEB
1 37424U 99025EGS 26254.96733840  .00001441  00000-0  56300-3 0  9991
2 37424  97.2086 337.6563 0212956 184.4608 175.4681 14.19033015724476
Epoch: 2026-09-11T23:12Z
TLE epoch observation values (Epoch: 2026-09-11T23:12:58.037Z)
Latitude
0.00004°
Longitude
-1.56862°
Altitude
984.627 km
Speed
7.281 km/s
True Right ascension
22h 30m 37s
True Declination
0° 00' 00"
Sunlit
Object was in full shadow at epoch
Visualization orbit readout
Latitude
Unknown
Longitude
Unknown
Altitude
Unknown
Speed
Unknown
Apparent Right ascension
Unknown
Apparent Declination
Unknown
Sunlit
N/A
Visualization observer readout
Local Sidereal Time
14:22:22
Azimuth
Unknown
Elevation
Unknown
Doppler factor
Unknown
Orbital elements
Apogee altitude
979.127 km
Perigee altitude
672.307 km
Semi-major axis
7,203.854 km
Eccentricity
0.0213
Inclination
97.2086°
RAAN
337.6563°
Arg. of periapsis
184.4608°
True anomaly
175.65593°
Mean anomaly
175.4681°
Eccentric anomaly
175.5625°
Mean motion
3.54973 °/min
Orbital period
101.42 mins
BSTAR
0.000563
Loading maneuver chart data...
Computing Atmospheric mass density...
Loading historical data...
Loading historical data...
Loading historical data...
Loading historical data...
Loading historical data...
Loading historical data...
Loading historical data...

Documentation

Showing up to 5 results
|